Location: Burbank
(38.7788°N, 114.0429°W)
Time: 13:50:20
(UTC+00:00)

Vanguard 2 Rocket - Pass Details

Date: 18 May 2026
Orbit: 553 x 3286 km, 32.9° (Epoch: 6 June)

Event Time Altitude Azimuth Distance (km) Brightness Sun altitude
Rises 00:08:54 0° 282° (WNW) 6,879 12.6 28.1°
Reaches altitude 10° 00:13:49 10° 275° (W) 6,061 12.9 27.2°
Maximum altitude 00:30:31 36° 218° (SW) 4,349 11.0 23.9°
Drops below altitude 10° 00:45:39 10° 159° (SSE) 5,456 10.6 21.0°
Sets 00:49:52 0° 151° (SSE) 6,145 10.8 20.2°
